User: anonymous   Login
Location: Oshawa
(43.9000°N, 78.8670°W)
Time: 14:49:13
(UTC-04:00)
Language:

Cosmos 1408 Rocket - Orbit

View from above orbital plane
View from above orbital plane
View from above satellite
View from above satellite

Ground track
Ground track

The orbit data is extracted from the following two-line orbital elements,

1 13553U 82092B   15087.01463340  .00000718  00000-0  83403-4 0  9998
2 13553 082.5661 270.6325 0020958 204.7084 270.7378 14.83829577756580
Epoch (UTC): 28 March 2015 00:21:04
Eccentricity: 0.0020958
inclination: 82.5661°
perigee height: 602 km
apogee height: 632 km
right ascension of ascending node: 270.6325°
argument of perigee: 204.7084°
revolutions per day: 14.83829577
mean anomaly at epoch: 270.7378°
orbit number at epoch: 75658

The dashed part of the orbit path shows where the satellite is in the earth's shadow,  

DLR